{"data":{"norad_id":56899,"intl_designator":"2023-083Z","name":"STARLINK-6203","alt_names":[],"object_type":"PAYLOAD","status":"ACTIVE","operator":null,"country":"US","launch_date":"2023-06-12","launch_site_code":"AFETR","launch_vehicle":null,"mission":null,"orbit_class":"UNKNOWN","rcs_meters":null,"size_class":null,"mass_kg":null,"dimensions":null,"purposes":["comms"],"wikipedia_slug":null,"has_3d_model":false,"image_url":null,"decayed_at":null,"tle_current":{"epoch":"2026-09-20T17:35:36.551616Z","epoch_age_seconds":97452,"freshness":"FRESH","line1":"1 56899U 23083Z   26263.73306194  .00002696  00000+0  10758-3 0  9991","line2":"2 56899  43.0021  59.9460 0000098 148.8675 211.2183 15.27533707181602","mean_motion":15.27533707,"eccentricity":9.8e-6,"inclination_deg":43.0021,"raan_deg":59.946,"arg_perigee_deg":148.8675,"mean_anomaly_deg":211.2183,"bstar":0.00010758,"rev_number":18160,"period_min":94.269605534799,"perigee_km":483.12047645399,"apogee_km":483.25495841845,"semimajor_km":6861.3247174362,"source":"CELESTRAK","updated_at":"2026-09-21T09:00:33.524310Z"}}}